When you browse on this site, cookies collect data to enhance your experience and personalize the content and advertising you see.
Visit our Privacy Policy to learn more. By continuing to use the site, you agree to this use of cookies and data.
  • Em Portugal
  • Lista de países
  • Para 7 dias
  • Temperatura da água
  • Mapa do tempo
  • Widgets de tempo
  • user-avatar
    Iniciar Sessão

    Previsão horária em Priazovskoe

    Hoje, 13 Dezembro, Sexta-feira

    Tempo Temperatura Precipitação Vento Pressão Humidade
    00:00 +1°C° 0 mm 9 m/s 759 mmHg 84%
    01:00 +1°C° 0 mm 9 m/s 759 mmHg 85%
    02:00 +1°C° 0 mm 9 m/s 759 mmHg 86%
    03:00 +1°C° 0 mm 9 m/s 758 mmHg 87%
    04:00 0°C° 0 mm 9 m/s 758 mmHg 87%
    05:00 0°C° 0 mm 9 m/s 758 mmHg 88%
    06:00 +1°C° 0 mm 10 m/s 758 mmHg 86%
    07:00 +1°C° 0 mm 10 m/s 758 mmHg 84%
    08:00 +1°C° 0 mm 10 m/s 758 mmHg 82%
    09:00 +1°C° 0 mm 10 m/s 758 mmHg 81%
    10:00 +1°C° 0 mm 10 m/s 757 mmHg 79%
    11:00 +2°C° 0 mm 10 m/s 757 mmHg 78%
    12:00 +2°C° 0 mm 10 m/s 757 mmHg 78%
    13:00 +2°C° 0 mm 10 m/s 756 mmHg 78%
    14:00 +2°C° 0 mm 10 m/s 756 mmHg 78%
    15:00 +2°C° 0 mm 10 m/s 756 mmHg 79%
    16:00 +2°C° 0 mm 10 m/s 756 mmHg 80%
    17:00 +2°C° 0 mm 9 m/s 755 mmHg 81%
    18:00 +3°C° 0.1 mm 9 m/s 755 mmHg 80%
    19:00 +3°C° 0.1 mm 9 m/s 755 mmHg 80%
    20:00 +3°C° 0.1 mm 9 m/s 755 mmHg 80%
    21:00 +3°C° 0.2 mm 9 m/s 755 mmHg 83%
    22:00 +3°C° 0.2 mm 9 m/s 755 mmHg 86%
    23:00 +3°C° 0.2 mm 9 m/s 754 mmHg 89%

    Amanhã, 14 Dezembro, Sábado

    Tempo Temperatura Precipitação Vento Pressão Humidade
    00:00 +3°C° 0.1 mm 9 m/s 754 mmHg 90%
    01:00 +5°C° 0.1 mm 9 m/s 755 mmHg 91%
    02:00 +5°C° 0.1 mm 9 m/s 755 mmHg 93%
    03:00 +5°C° 0 mm 8 m/s 754 mmHg 92%
    04:00 +5°C° 0 mm 8 m/s 754 mmHg 91%
    05:00 +6°C° 0 mm 7 m/s 754 mmHg 91%
    06:00 +6°C° 0 mm 7 m/s 755 mmHg 90%
    07:00 +6°C° 0 mm 7 m/s 755 mmHg 90%
    08:00 +7°C° 0 mm 6 m/s 755 mmHg 90%
    09:00 +8°C° 0 mm 6 m/s 755 mmHg 87%
    10:00 +8°C° 0 mm 6 m/s 755 mmHg 85%
    11:00 +8°C° 0 mm 6 m/s 755 mmHg 82%
    12:00 +8°C° 0 mm 6 m/s 755 mmHg 83%
    13:00 +8°C° 0 mm 6 m/s 755 mmHg 84%
    14:00 +8°C° 0 mm 6 m/s 755 mmHg 85%
    15:00 +8°C° 0 mm 6 m/s 756 mmHg 85%
    16:00 +8°C° 0 mm 5 m/s 756 mmHg 86%
    17:00 +8°C° 0 mm 5 m/s 756 mmHg 86%
    18:00 +7°C° 0 mm 4 m/s 757 mmHg 88%
    19:00 +8°C° 0 mm 3 m/s 757 mmHg 90%
    20:00 +8°C° 0 mm 2 m/s 758 mmHg 92%
    21:00 +8°C° 0 mm 2 m/s 758 mmHg 92%
    22:00 +8°C° 0 mm 2 m/s 758 mmHg 91%
    23:00 +8°C° 0 mm 2 m/s 758 mmHg 90%

    Depois de amanhã, 15 Dezembro, Domingo

    Tempo Temperatura Precipitação Vento Pressão Humidade
    00:00 +9°C° 0 mm 1 m/s 759 mmHg 90%
    01:00 +9°C° 0 mm 1 m/s 759 mmHg 89%
    02:00 +9°C° 0 mm 1 m/s 759 mmHg 89%
    03:00 +8°C° 0 mm 0 m/s 759 mmHg 89%
    04:00 +7°C° 0 mm 0 m/s 760 mmHg 89%
    05:00 +7°C° 0 mm 0 m/s 760 mmHg 88%
    06:00 +8°C° 0 mm 1 m/s 760 mmHg 88%
    07:00 +9°C° 0 mm 1 m/s 760 mmHg 87%
    08:00 +8°C° 0 mm 2 m/s 761 mmHg 87%
    09:00 +9°C° 0 mm 2 m/s 761 mmHg 83%
    10:00 +10°C° 0 mm 2 m/s 761 mmHg 80%
    11:00 +12°C° 0 mm 2 m/s 761 mmHg 76%
    12:00 +10°C° 0.3 mm 2 m/s 761 mmHg 81%
    13:00 +10°C° 0.3 mm 2 m/s 761 mmHg 86%
    14:00 +9°C° 0.3 mm 2 m/s 761 mmHg 90%
    15:00 +9°C° 0.5 mm 3 m/s 762 mmHg 92%
    16:00 +9°C° 0.5 mm 3 m/s 762 mmHg 94%
    17:00 +7°C° 0.5 mm 4 m/s 763 mmHg 95%
    18:00 +7°C° 0 mm 4 m/s 763 mmHg 94%
    19:00 +7°C° 0 mm 4 m/s 764 mmHg 92%
    20:00 +7°C° 0 mm 4 m/s 764 mmHg 90%
    21:00 +6°C° 0 mm 4 m/s 765 mmHg 91%
    22:00 +7°C° 0 mm 3 m/s 765 mmHg 91%
    23:00 +7°C° 0 mm 3 m/s 766 mmHg 92%

    16 Dezembro, Segunda-feira

    Tempo Temperatura Precipitação Vento Pressão Humidade
    00:00 +5°C° 0 mm 3 m/s 766 mmHg 91%
    01:00 +5°C° 0 mm 3 m/s 767 mmHg 91%
    02:00 +4°C° 0 mm 4 m/s 767 mmHg 91%
    03:00 +4°C° 0 mm 3 m/s 767 mmHg 90%
    04:00 +4°C° 0 mm 3 m/s 768 mmHg 90%
    05:00 +3°C° 0 mm 3 m/s 768 mmHg 89%
    06:00 +3°C° 0 mm 3 m/s 769 mmHg 88%
    07:00 +3°C° 0 mm 3 m/s 769 mmHg 87%
    08:00 +3°C° 0 mm 3 m/s 769 mmHg 86%
    09:00 +5°C° 0 mm 2 m/s 770 mmHg 80%
    10:00 +6°C° 0 mm 2 m/s 770 mmHg 74%
    11:00 +8°C° 0 mm 1 m/s 770 mmHg 68%
    12:00 +9°C° 0 mm 1 m/s 770 mmHg 65%
    13:00 +9°C° 0 mm 1 m/s 770 mmHg 62%
    14:00 +9°C° 0 mm 2 m/s 770 mmHg 60%
    15:00 +9°C° 0 mm 1 m/s 770 mmHg 64%
    16:00 +8°C° 0 mm 1 m/s 770 mmHg 68%
    17:00 +7°C° 0 mm 1 m/s 770 mmHg 73%
    18:00 +7°C° 0 mm 1 m/s 770 mmHg 74%
    19:00 +7°C° 0 mm 1 m/s 770 mmHg 74%
    20:00 +7°C° 0 mm 1 m/s 770 mmHg 75%
    21:00 +6°C° 0 mm 2 m/s 771 mmHg 76%
    22:00 +6°C° 0 mm 2 m/s 771 mmHg 77%
    23:00 +6°C° 0 mm 2 m/s 771 mmHg 77%

    17 Dezembro, Terça-feira

    Tempo Temperatura Precipitação Vento Pressão Humidade
    00:00 +6°C° 0 mm 2 m/s 770 mmHg 79%
    01:00 +5°C° 0 mm 2 m/s 770 mmHg 80%
    02:00 +4°C° 0 mm 3 m/s 770 mmHg 82%
    03:00 +5°C° 0 mm 2 m/s 770 mmHg 82%
    04:00 +5°C° 0 mm 2 m/s 770 mmHg 82%
    05:00 +5°C° 0 mm 2 m/s 770 mmHg 83%
    06:00 +5°C° 0 mm 2 m/s 770 mmHg 83%
    07:00 +5°C° 0 mm 2 m/s 771 mmHg 83%
    08:00 +5°C° 0 mm 2 m/s 771 mmHg 83%
    09:00 +6°C° 0 mm 2 m/s 771 mmHg 78%
    10:00 +8°C° 0 mm 3 m/s 771 mmHg 74%
    11:00 +9°C° 0 mm 3 m/s 771 mmHg 70%
    12:00 +9°C° 0 mm 3 m/s 770 mmHg 69%
    13:00 +9°C° 0 mm 3 m/s 770 mmHg 68%
    14:00 +9°C° 0 mm 3 m/s 769 mmHg 67%
    15:00 +8°C° 0 mm 3 m/s 769 mmHg 70%
    16:00 +7°C° 0 mm 3 m/s 769 mmHg 73%
    17:00 +7°C° 0 mm 3 m/s 769 mmHg 76%
    18:00 +7°C° 0 mm 3 m/s 769 mmHg 77%
    19:00 +7°C° 0 mm 3 m/s 769 mmHg 78%
    20:00 +7°C° 0 mm 3 m/s 769 mmHg 79%
    21:00 +7°C° 0 mm 3 m/s 769 mmHg 80%
    22:00 +7°C° 0 mm 3 m/s 769 mmHg 81%
    23:00 +7°C° 0 mm 3 m/s 769 mmHg 82%

    18 Dezembro, Quarta-feira

    Tempo Temperatura Precipitação Vento Pressão Humidade
    00:00 +5°C° 0 mm 3 m/s 769 mmHg 81%
    01:00 +5°C° 0 mm 3 m/s 769 mmHg 80%
    02:00 +5°C° 0 mm 3 m/s 768 mmHg 80%
    03:00 +5°C° 0 mm 3 m/s 768 mmHg 79%
    04:00 +5°C° 0 mm 3 m/s 768 mmHg 78%
    05:00 +5°C° 0 mm 3 m/s 768 mmHg 78%
    06:00 +5°C° 0 mm 4 m/s 768 mmHg 80%
    07:00 +5°C° 0 mm 4 m/s 768 mmHg 82%
    08:00 +5°C° 0 mm 4 m/s 767 mmHg 84%
    09:00 +6°C° 0 mm 5 m/s 767 mmHg 78%
    10:00 +8°C° 0 mm 5 m/s 767 mmHg 73%
    11:00 +9°C° 0 mm 5 m/s 767 mmHg 68%
    12:00 +10°C° 0 mm 6 m/s 766 mmHg 66%
    13:00 +10°C° 0 mm 6 m/s 766 mmHg 65%
    14:00 +11°C° 0 mm 6 m/s 765 mmHg 63%
    15:00 +10°C° 0 mm 6 m/s 765 mmHg 68%
    16:00 +9°C° 0 mm 6 m/s 765 mmHg 72%
    17:00 +8°C° 0 mm 6 m/s 765 mmHg 77%
    18:00 +8°C° 0 mm 6 m/s 765 mmHg 82%
    19:00 +7°C° 0 mm 6 m/s 765 mmHg 87%
    20:00 +7°C° 0 mm 6 m/s 765 mmHg 91%
    21:00 +7°C° 0 mm 5 m/s 766 mmHg 90%
    22:00 +6°C° 0 mm 5 m/s 766 mmHg 89%
    23:00 +6°C° 0 mm 5 m/s 766 mmHg 88%
    Mostrar mais